This is the latest recevied weather packets stored in our database for station/object EA8DNP-14. If no packets are shown the sender has not sent any weather packets the latest 10 day(s).
| Time | Temp. | Humidity | Pressure | Rain* | Wind** | Luminosity | Snow |
|---|---|---|---|---|---|---|---|
| 1787626941 | 10.56° C | 69% | 902.8 hPa | - | - | - | - |
| 1787626041 | 10.56° C | 68% | 902.8 hPa | - | - | - | - |
| 1787625141 | 10.56° C | 67% | 903 hPa | - | - | - | - |
| 1787624241 | 10.56° C | 66% | 903.2 hPa | - | - | - | - |
| 1787623341 | 11.11° C | 65% | 903.2 hPa | - | - | - | - |
| 1787622440 | 11.67° C | 64% | 903.5 hPa | - | - | - | - |
| 1787621540 | 12.22° C | 62% | 903.6 hPa | - | - | - | - |
| 1787620640 | 13.33° C | 60% | 903.6 hPa | - | - | - | - |
| 1787619740 | 13.89° C | 59% | 903.7 hPa | - | - | - | - |
| 1787618840 | 13.33° C | 60% | 903.8 hPa | - | - | - | - |
| 1787617940 | 13.33° C | 60% | 904 hPa | - | - | - | - |
| 1787617040 | 13.89° C | 60% | 904 hPa | - | - | - | - |
| 1787616143 | 13.89° C | 61% | 903.8 hPa | - | - | - | - |
| 1787615240 | 13.89° C | 61% | 904.2 hPa | - | - | - | - |
| 1787614340 | 13.89° C | 62% | 904 hPa | - | - | - | - |
| 1787613439 | 13.89° C | 63% | 904.3 hPa | - | - | - | - |
| 1787612539 | 13.89° C | 63% | 904.7 hPa | - | - | - | - |
| 1787611639 | 13.89° C | 64% | 904.8 hPa | - | - | - | - |
| 1787610739 | 13.89° C | 64% | 905 hPa | - | - | - | - |
| 1787609839 | 13.89° C | 64% | 905 hPa | - | - | - | - |
| 1787608939 | 13.33° C | 66% | 904.8 hPa | - | - | - | - |
| 1787608039 | 12.78° C | 68% | 904.8 hPa | - | - | - | - |
| 1787607139 | 12.78° C | 68% | 904.9 hPa | - | - | - | - |
| 1787606239 | 12.78° C | 69% | 904.9 hPa | - | - | - | - |
| 1787605339 | 12.78° C | 69% | 904.8 hPa | - | - | - | - |
* Rain since midnight (hover to see other rain measurements)
** Current wind speed in m/s (hover to see current wind gust speed)